Time,TemperatureF,DewpointF,PressureIn,WindDirection,WindDirectionDegrees,WindSpeedMPH,WindSpeedGustMPH,Humidity,HourlyPrecipIn,Conditions,Clouds,dailyrainin,SoftwareType,DateUTC
2013-03-13 00:02:00,51.8,49.0,30.12,SW,235,0.0,0.0,90,0.00,,,0.00,weatherlink.com 1.10,2013-03-13 07:02:00,
2013-03-13 00:17:00,51.6,49.0,30.12,SW,236,0.0,0.0,90,0.00,,,0.00,weatherlink.com 1.10,2013-03-13 07:17:00,
2013-03-13 00:32:00,51.5,49.0,30.12,SW,236,0.0,0.0,90,0.00,,,0.00,weatherlink.com 1.10,2013-03-13 07:32:00,
2013-03-13 00:47:00,51.9,49.0,30.12,SW,236,0.0,0.0,89,0.00,,,0.00,weatherlink.com 1.10,2013-03-13 07:47:00,
2013-03-13 01:02:00,52.4,49.0,30.12,SW,236,0.0,0.0,87,0.00,,,0.00,weatherlink.com 1.10,2013-03-13 08:02:00,
2013-03-13 01:17:00,52.4,48.0,30.12,SW,236,0.0,0.0,86,0.00,,,0.00,weatherlink.com 1.10,2013-03-13 08:17:00,
2013-03-13 01:32:00,51.9,48.0,30.12,SW,236,0.0,0.0,87,0.00,,,0.00,weatherlink.com 1.10,2013-03-13 08:32:00,
2013-03-13 01:48:00,50.7,48.0,30.13,SW,236,0.0,0.0,90,0.00,,,0.00,weatherlink.com 1.10,2013-03-13 08:48:00,
2013-03-13 02:03:00,50.0,48.0,30.13,SW,236,0.0,0.0,92,0.00,,,0.00,weatherlink.com 1.10,2013-03-13 09:03:00,
2013-03-13 02:18:00,49.9,48.0,30.13,SW,236,0.0,0.0,92,0.00,,,0.00,weatherlink.com 1.10,2013-03-13 09:18:00,
2013-03-13 02:33:00,49.5,48.0,30.13,SW,235,0.0,0.0,93,0.00,,,0.00,weatherlink.com 1.10,2013-03-13 09:33:00,
2013-03-13 02:48:00,49.0,47.0,30.13,SW,236,0.0,0.0,94,0.00,,,0.00,weatherlink.com 1.10,2013-03-13 09:48:00,
2013-03-13 03:03:00,48.5,47.0,30.14,SW,236,0.0,0.0,94,0.00,,,0.00,weatherlink.com 1.10,2013-03-13 10:03:00,
2013-03-13 03:18:00,47.8,46.0,30.14,SW,236,0.0,0.0,94,0.00,,,0.00,weatherlink.com 1.10,2013-03-13 10:18:00,
2013-03-13 03:33:00,47.2,46.0,30.14,SW,235,0.0,0.0,96,0.00,,,0.00,weatherlink.com 1.10,2013-03-13 10:33:00,
2013-03-13 03:48:00,47.6,47.0,30.13,SW,235,0.0,0.0,96,0.00,,,0.00,weatherlink.com 1.10,2013-03-13 10:48:00,
2013-03-13 04:03:00,47.8,47.0,30.13,SW,236,0.0,0.0,96,0.00,,,0.00,weatherlink.com 1.10,2013-03-13 11:03:00,
2013-03-13 04:18:00,47.9,47.0,30.12,SW,236,0.0,0.0,96,0.00,,,0.00,weatherlink.com 1.10,2013-03-13 11:18:00,
2013-03-13 04:33:00,48.3,46.0,30.12,SW,236,0.0,0.0,92,0.00,,,0.00,weatherlink.com 1.10,2013-03-13 11:33:00,
2013-03-13 04:48:00,48.9,46.0,30.12,SW,236,0.0,0.0,90,0.00,,,0.00,weatherlink.com 1.10,2013-03-13 11:48:00,
2013-03-13 05:03:00,49.0,46.0,30.12,SW,236,0.0,0.0,90,0.00,,,0.00,weatherlink.com 1.10,2013-03-13 12:03:00,
2013-03-13 05:18:00,49.4,46.0,30.12,SW,236,0.0,0.0,88,0.00,,,0.00,weatherlink.com 1.10,2013-03-13 12:18:00,
2013-03-13 05:33:00,49.4,46.0,30.12,SW,235,0.0,0.0,88,0.00,,,0.00,weatherlink.com 1.10,2013-03-13 12:33:00,
2013-03-13 05:48:00,48.2,46.0,30.13,SW,236,0.0,0.0,90,0.00,,,0.00,weatherlink.com 1.10,2013-03-13 12:48:00,
2013-03-13 06:03:00,47.8,46.0,30.13,SW,236,0.0,0.0,92,0.00,,,0.00,weatherlink.com 1.10,2013-03-13 13:03:00,
2013-03-13 06:18:00,48.0,46.0,30.13,SW,235,0.0,0.0,92,0.00,,,0.00,weatherlink.com 1.10,2013-03-13 13:18:00,
2013-03-13 06:33:00,47.6,46.0,30.13,SW,236,0.0,0.0,93,0.00,,,0.00,weatherlink.com 1.10,2013-03-13 13:33:00,
2013-03-13 06:48:00,47.0,45.0,30.13,SW,236,0.0,0.0,93,0.00,,,0.00,weatherlink.com 1.10,2013-03-13 13:48:00,
2013-03-13 07:03:00,47.1,45.0,30.13,SW,236,0.0,0.0,93,0.00,,,0.00,weatherlink.com 1.10,2013-03-13 14:03:00,
2013-03-13 07:18:00,47.6,45.0,30.13,SW,236,0.0,0.0,92,0.00,,,0.00,weatherlink.com 1.10,2013-03-13 14:18:00,
2013-03-13 07:33:00,48.4,46.0,30.14,SW,236,0.0,0.0,91,0.00,,,0.00,weatherlink.com 1.10,2013-03-13 14:33:00,
2013-03-13 07:48:00,48.7,46.0,30.14,SW,235,0.0,0.0,90,0.00,,,0.00,weatherlink.com 1.10,2013-03-13 14:48:00,
2013-03-13 08:03:00,49.0,46.0,30.13,SW,236,0.0,0.0,90,0.00,,,0.00,weatherlink.com 1.10,2013-03-13 15:03:00,
2013-03-13 08:18:00,50.9,47.0,30.14,SW,235,0.0,1.0,85,0.00,,,0.00,weatherlink.com 1.10,2013-03-13 15:18:00,
2013-03-13 08:33:00,52.6,48.0,30.14,SW,235,0.0,1.0,83,0.00,,,0.00,weatherlink.com 1.10,2013-03-13 15:33:00,
2013-03-13 08:48:00,54.1,49.0,30.15,SW,235,0.0,1.0,83,0.00,,,0.00,weatherlink.com 1.10,2013-03-13 15:48:00,
2013-03-13 09:03:00,54.3,50.0,30.15,SW,236,0.0,1.0,85,0.00,,,0.00,weatherlink.com 1.10,2013-03-13 16:03:00,
2013-03-13 09:18:00,57.0,51.0,30.15,SW,235,0.0,1.0,80,0.00,,,0.00,weatherlink.com 1.10,2013-03-13 16:18:00,
2013-03-13 09:33:00,60.3,52.0,30.16,SW,235,0.0,2.0,73,0.00,,,0.00,weatherlink.com 1.10,2013-03-13 16:33:00,
2013-03-13 09:48:00,60.3,51.0,30.16,SW,235,0.0,3.0,71,0.00,,,0.00,weatherlink.com 1.10,2013-03-13 16:48:00,
2013-03-13 10:03:00,60.9,52.0,30.16,SW,235,0.0,2.0,72,0.00,,,0.00,weatherlink.com 1.10,2013-03-13 17:03:00,
2013-03-13 10:18:00,63.7,52.0,30.17,SW,236,1.0,2.0,66,0.00,,,0.00,weatherlink.com 1.10,2013-03-13 17:18:00,
2013-03-13 10:33:00,65.2,52.0,30.17,SW,235,0.0,2.0,62,0.00,,,0.00,weatherlink.com 1.10,2013-03-13 17:33:00,
2013-03-13 10:48:00,65.7,52.0,30.16,SW,215,2.0,3.0,62,0.00,,,0.00,weatherlink.com 1.10,2013-03-13 17:48:00,
2013-03-13 11:04:00,66.3,55.0,30.16,SSW,195,0.0,3.0,67,0.00,,,0.00,weatherlink.com 1.10,2013-03-13 18:04:00,
2013-03-13 11:19:00,66.3,53.0,30.16,WSW,244,1.0,4.0,63,0.00,,,0.00,weatherlink.com 1.10,2013-03-13 18:19:00,
2013-03-13 11:34:00,66.1,53.0,30.16,SW,217,3.0,3.0,63,0.00,,,0.00,weatherlink.com 1.10,2013-03-13 18:34:00,
2013-03-13 11:49:00,67.4,54.0,30.16,SW,226,2.0,4.0,62,0.00,,,0.00,weatherlink.com 1.10,2013-03-13 18:49:00,
2013-03-13 12:04:00,68.7,54.0,30.16,WSW,246,3.0,5.0,60,0.00,,,0.00,weatherlink.com 1.10,2013-03-13 19:04:00,
2013-03-13 12:19:00,69.3,55.0,30.16,SW,223,3.0,7.0,60,0.00,,,0.00,weatherlink.com 1.10,2013-03-13 19:19:00,
2013-03-13 12:34:00,70.0,55.0,30.16,SSW,199,5.0,6.0,59,0.00,,,0.00,weatherlink.com 1.10,2013-03-13 19:34:00,
2013-03-13 12:49:00,71.0,54.0,30.16,South,186,2.0,9.0,55,0.00,,,0.00,weatherlink.com 1.10,2013-03-13 19:49:00,
2013-03-13 13:04:00,71.4,52.0,30.15,WSW,246,3.0,4.0,51,0.00,,,0.00,weatherlink.com 1.10,2013-03-13 20:04:00,
2013-03-13 13:19:00,72.5,54.0,30.15,South,186,3.0,6.0,53,0.00,,,0.00,weatherlink.com 1.10,2013-03-13 20:19:00,
2013-03-13 13:34:00,72.8,53.0,30.14,South,175,3.0,5.0,50,0.00,,,0.00,weatherlink.com 1.10,2013-03-13 20:34:00,
2013-03-13 13:49:00,73.1,53.0,30.14,SW,226,2.0,6.0,49,0.00,,,0.00,weatherlink.com 1.10,2013-03-13 20:49:00,
2013-03-13 14:04:00,74.2,54.0,30.13,South,186,4.0,6.0,49,0.00,,,0.00,weatherlink.com 1.10,2013-03-13 21:04:00,
2013-03-13 14:19:00,74.4,52.0,30.12,WSW,240,1.0,5.0,45,0.00,,,0.00,weatherlink.com 1.10,2013-03-13 21:19:00,
2013-03-13 14:34:00,75.4,53.0,30.12,SW,225,3.0,7.0,46,0.00,,,0.00,weatherlink.com 1.10,2013-03-13 21:34:00,
2013-03-13 14:49:00,75.4,53.0,30.11,WSW,253,2.0,6.0,45,0.00,,,0.00,weatherlink.com 1.10,2013-03-13 21:49:00,
2013-03-13 15:04:00,76.1,51.0,30.11,WSW,240,0.0,5.0,42,0.00,,,0.00,weatherlink.com 1.10,2013-03-13 22:04:00,
2013-03-13 15:19:00,76.3,53.0,30.10,WSW,241,2.0,6.0,44,0.00,,,0.00,weatherlink.com 1.10,2013-03-13 22:19:00,
2013-03-13 15:34:00,76.4,49.0,30.10,SW,219,4.0,7.0,38,0.00,,,0.00,weatherlink.com 1.10,2013-03-13 22:34:00,
2013-03-13 15:49:00,76.2,51.0,30.10,SSW,194,2.0,9.0,42,0.00,,,0.00,weatherlink.com 1.10,2013-03-13 22:49:00,
2013-03-13 16:04:00,76.9,46.0,30.09,South,174,3.0,7.0,34,0.00,,,0.00,weatherlink.com 1.10,2013-03-13 23:04:00,
2013-03-13 16:19:00,77.3,49.0,30.09,West,278,2.0,6.0,37,0.00,,,0.00,weatherlink.com 1.10,2013-03-13 23:19:00,
2013-03-13 16:34:00,77.7,49.0,30.08,South,180,3.0,6.0,36,0.00,,,0.00,weatherlink.com 1.10,2013-03-13 23:34:00,
2013-03-13 16:49:00,77.1,54.0,30.08,South,177,6.0,8.0,45,0.00,,,0.00,weatherlink.com 1.10,2013-03-13 23:49:00,
2013-03-13 17:04:00,75.4,54.0,30.08,South,173,3.0,8.0,47,0.00,,,0.00,weatherlink.com 1.10,2013-03-14 00:04:00,
2013-03-13 17:19:00,74.4,53.0,30.08,South,182,3.0,6.0,48,0.00,,,0.00,weatherlink.com 1.10,2013-03-14 00:19:00,
2013-03-13 17:34:00,74.0,54.0,30.08,SSW,209,3.0,6.0,49,0.00,,,0.00,weatherlink.com 1.10,2013-03-14 00:34:00,
2013-03-13 17:49:00,73.0,54.0,30.08,South,180,2.0,5.0,52,0.00,,,0.00,weatherlink.com 1.10,2013-03-14 00:49:00,
2013-03-13 18:04:00,72.6,54.0,30.08,SSW,204,1.0,5.0,52,0.00,,,0.00,weatherlink.com 1.10,2013-03-14 01:04:00,
2013-03-13 18:19:00,71.3,54.0,30.08,SSW,209,1.0,3.0,54,0.00,,,0.00,weatherlink.com 1.10,2013-03-14 01:19:00,
2013-03-13 18:35:00,68.6,54.0,30.07,SSW,209,0.0,2.0,59,0.00,,,0.00,weatherlink.com 1.10,2013-03-14 01:35:00,
2013-03-13 18:50:00,66.4,53.0,30.07,SSW,209,0.0,2.0,62,0.00,,,0.00,weatherlink.com 1.10,2013-03-14 01:50:00,
2013-03-13 19:05:00,65.6,53.0,30.07,SSW,209,0.0,2.0,63,0.00,,,0.00,weatherlink.com 1.10,2013-03-14 02:05:00,
2013-03-13 19:20:00,65.3,51.0,30.07,North,5,0.0,3.0,61,0.00,,,0.00,weatherlink.com 1.10,2013-03-14 02:20:00,
2013-03-13 19:35:00,64.1,53.0,30.07,North,6,0.0,1.0,67,0.00,,,0.00,weatherlink.com 1.10,2013-03-14 02:35:00,
2013-03-13 19:50:00,62.7,52.0,30.07,North,6,0.0,0.0,69,0.00,,,0.00,weatherlink.com 1.10,2013-03-14 02:50:00,
2013-03-13 20:05:00,61.3,53.0,30.08,North,6,0.0,1.0,73,0.00,,,0.00,weatherlink.com 1.10,2013-03-14 03:05:00,
2013-03-13 20:20:00,59.3,52.0,30.09,North,6,0.0,0.0,76,0.00,,,0.00,weatherlink.com 1.10,2013-03-14 03:20:00,
2013-03-13 20:35:00,58.2,51.0,30.09,North,6,0.0,1.0,78,0.00,,,0.00,weatherlink.com 1.10,2013-03-14 03:35:00,
2013-03-13 20:50:00,57.2,51.0,30.09,North,6,0.0,0.0,80,0.00,,,0.00,weatherlink.com 1.10,2013-03-14 03:50:00,
2013-03-13 21:05:00,56.7,51.0,30.09,North,6,0.0,0.0,81,0.00,,,0.00,weatherlink.com 1.10,2013-03-14 04:05:00,
2013-03-13 21:20:00,56.6,51.0,30.09,North,6,0.0,0.0,82,0.00,,,0.00,weatherlink.com 1.10,2013-03-14 04:20:00,
2013-03-13 21:35:00,56.2,51.0,30.09,North,6,0.0,0.0,83,0.00,,,0.00,weatherlink.com 1.10,2013-03-14 04:35:00,
2013-03-13 21:50:00,55.3,51.0,30.10,North,6,0.0,0.0,84,0.00,,,0.00,weatherlink.com 1.10,2013-03-14 04:50:00,
2013-03-13 22:05:00,54.8,50.0,30.10,North,6,0.0,0.0,84,0.00,,,0.00,weatherlink.com 1.10,2013-03-14 05:05:00,
2013-03-13 22:20:00,54.4,50.0,30.10,North,6,0.0,1.0,86,0.00,,,0.00,weatherlink.com 1.10,2013-03-14 05:20:00,
2013-03-13 22:35:00,54.0,50.0,30.11,North,6,0.0,0.0,87,0.00,,,0.00,weatherlink.com 1.10,2013-03-14 05:35:00,
2013-03-13 22:50:00,53.8,50.0,30.11,North,6,0.0,0.0,87,0.00,,,0.00,weatherlink.com 1.10,2013-03-14 05:50:00,
2013-03-13 23:05:00,54.0,50.0,30.10,North,6,0.0,0.0,87,0.00,,,0.00,weatherlink.com 1.10,2013-03-14 06:05:00,
2013-03-13 23:20:00,53.9,50.0,30.10,North,6,0.0,0.0,87,0.00,,,0.00,weatherlink.com 1.10,2013-03-14 06:20:00,
2013-03-13 23:35:00,53.6,50.0,30.11,North,6,0.0,0.0,88,0.00,,,0.00,weatherlink.com 1.10,2013-03-14 06:35:00,
2013-03-13 23:50:00,53.0,50.0,30.11,North,6,0.0,0.0,89,0.00,,,0.00,weatherlink.com 1.10,2013-03-14 06:50:00,